TimeCDT,TemperatureF,Dew PointF,Humidity,Sea Level PressureIn,VisibilityMPH,Wind Direction,Wind SpeedMPH,Gust SpeedMPH,PrecipitationIn,Events,Conditions,WindDirDegrees,DateUTC
12:56 AM,57.9,55.9,93,30.08,10.0,Calm,Calm,-,N/A,,Clear,0,2013-05-09 05:56:00
1:56 AM,57.9,55.9,93,30.06,8.0,Calm,Calm,-,N/A,,Clear,0,2013-05-09 06:56:00
2:56 AM,61.0,57.9,90,30.05,9.0,Calm,Calm,-,N/A,,Clear,0,2013-05-09 07:56:00
3:56 AM,57.0,54.0,89,30.07,8.0,Calm,Calm,-,N/A,,Clear,0,2013-05-09 08:56:00
4:40 AM,55.4,53.6,94,30.08,6.0,Calm,Calm,-,N/A,,Partly Cloudy,0,2013-05-09 09:40:00
4:56 AM,55.9,53.1,90,30.07,7.0,Calm,Calm,-,N/A,,Partly Cloudy,0,2013-05-09 09:56:00
5:17 AM,55.4,53.6,94,30.08,7.0,Calm,Calm,-,N/A,,Mostly Cloudy,0,2013-05-09 10:17:00
5:29 AM,55.4,53.6,94,30.09,1.0,Calm,Calm,-,N/A,,Mist,0,2013-05-09 10:29:00
5:36 AM,55.4,53.6,94,30.09,0.2,Calm,Calm,-,N/A,Fog,Fog,0,2013-05-09 10:36:00
5:56 AM,54.0,53.1,97,30.08,0.2,Calm,Calm,-,N/A,Fog,Fog,0,2013-05-09 10:56:00
6:56 AM,57.0,55.9,96,30.11,0.2,Calm,Calm,-,N/A,Fog,Fog,0,2013-05-09 11:56:00
7:36 AM,60.8,59.0,94,30.13,1.8,Calm,Calm,-,N/A,,Scattered Clouds,0,2013-05-09 12:36:00
7:44 AM,60.8,60.8,100,30.13,3.0,Calm,Calm,-,N/A,,Partly Cloudy,0,2013-05-09 12:44:00
7:56 AM,63.0,61.0,93,30.13,6.0,Calm,Calm,-,N/A,,Clear,0,2013-05-09 12:56:00
8:56 AM,68.0,61.0,78,30.13,10.0,Calm,Calm,-,N/A,,Clear,0,2013-05-09 13:56:00
9:56 AM,75.0,62.1,64,30.13,10.0,West,4.6,-,N/A,,Clear,280,2013-05-09 14:56:00
10:56 AM,78.1,59.0,52,30.14,10.0,Variable,3.5,-,N/A,,Clear,0,2013-05-09 15:56:00
11:56 AM,80.1,59.0,48,30.14,10.0,WSW,3.5,-,N/A,,Partly Cloudy,240,2013-05-09 16:56:00
12:56 PM,82.0,57.9,44,30.13,10.0,WSW,4.6,-,N/A,,Scattered Clouds,250,2013-05-09 17:56:00
1:56 PM,82.9,57.0,41,30.11,10.0,Variable,3.5,-,N/A,,Partly Cloudy,0,2013-05-09 18:56:00
2:56 PM,82.0,57.0,42,30.09,10.0,SW,4.6,-,N/A,,Mostly Cloudy,220,2013-05-09 19:56:00
3:56 PM,82.0,55.9,41,30.07,10.0,South,6.9,-,N/A,,Partly Cloudy,190,2013-05-09 20:56:00
4:56 PM,82.0,57.0,42,30.05,10.0,South,5.8,-,N/A,,Partly Cloudy,170,2013-05-09 21:56:00
5:56 PM,79.0,57.9,48,30.05,10.0,South,3.5,-,N/A,,Clear,190,2013-05-09 22:56:00
6:56 PM,78.1,59.0,52,30.04,10.0,South,4.6,-,N/A,,Clear,170,2013-05-09 23:56:00
7:56 PM,73.9,60.1,62,30.06,10.0,Calm,Calm,-,N/A,,Clear,0,2013-05-10 00:56:00
8:56 PM,68.0,62.1,81,30.08,10.0,South,3.5,-,N/A,,Clear,190,2013-05-10 01:56:00
9:56 PM,71.1,59.0,66,30.09,10.0,SSW,5.8,-,N/A,,Clear,210,2013-05-10 02:56:00
10:56 PM,68.0,59.0,73,30.09,10.0,Calm,Calm,-,N/A,,Clear,0,2013-05-10 03:56:00
11:56 PM,66.0,59.0,78,30.09,10.0,South,3.5,-,N/A,,Clear,190,2013-05-10 04:56:00